Showing default

SPAWAR-CAL-R, 43776

Orbit data source: Space-Track

SPAWAR-CAL-R, 43776 is a payload satellite owned by SPAWAR (US) in SSO that was launched on Mon, 03 Dec 2018 UTC via an FALCON 9 launch vehicle from the Air Force Western Test Range (AFWTR). Payload-class satellites include a variety of spacecraft equipped with specific instruments for various scientific and technological missions. These include communications satellites like Starlink; space stations such as the ISS; scientific satellites like the Hubble; Earth observation satellites from companies like Planet Labs, Umbra, and HawkEye 360; GPS; miniature CubeSats for education and research; and military/defense satellites.

Loading next visibility...
Identifier
43776, 2018-099U
Orbit
SSO
Country
Flag of USUS
Related business
Manufacturer
SPAWAR?
Mission
Operational Defense Calibration
Bus & Motor
CUBESAT 1U, Unknown motor
Mass
1 kg wet, 1 kg dry
Launch date (UTC)
2018-12-03 (7 years ago)
Launch vehicle
FALCON 9
Launch site
Air Force Western Test Range (AFWTR)
Object type
Payload
Rocket body
Debris
Shape & HBR
Box, 0.1 m
Radar Cross Section
0.015 m², Small (<0.1 m²)

Expand to show TLE details & history
Last TLE update: 10 hours ago

TLE from 10 hours ago
0 SPAWAR-CAL-R
1 43776U 18099U   26034.54313119  .00003376  00000-0  24085-3 0  9997
2 43776  97.4571  79.6055 0021567  96.7758 263.5924 15.05013842391897
Epoch: 2026-02-03T13:02Z
TLE epoch observation values (Epoch: 2026-02-03T13:02:06.534Z)
Latitude
-0.00003°
Longitude
110.35572°
Altitude
556.232 km
Speed
7.583 km/s
True Right ascension
05h 18m 25s
True Declination
0° 00' 00"
Sunlit
Object was in full shadow at epoch
Visualization orbit readout
Latitude
Unknown
Longitude
Unknown
Altitude
Unknown
Speed
Unknown
Apparent Right ascension
Unknown
Apparent Declination
Unknown
Sunlit
N/A
Visualization observer readout
Local Sidereal Time
00:34:14
Azimuth
Unknown
Elevation
Unknown
Doppler factor
Unknown
Orbital elements
Apogee altitude
563.39 km
Perigee altitude
533.513 km
Semi-major axis
6,926.588 km
Eccentricity
0.00216
Inclination
97.4571°
RAAN
79.6055°
Arg. of periapsis
96.7758°
True anomaly
263.34688°
Mean anomaly
263.5924°
Eccentric anomaly
263.46963°
Mean motion
3.76499 °/min
Orbital period
95.62 mins
BSTAR
0.00024085
Loading maneuver chart data...
Computing Atmospheric mass density...
Loading historical data...
Loading historical data...
Loading historical data...
Loading historical data...
Loading historical data...
Loading historical data...
Loading historical data...

Documentation

Showing up to 5 results
|